Location: Hough
(41.5120°N, 81.6365°W)
Time: 15:27:38
(UTC+00:00)

Daily predictions for brighter satellites

Satellite Brightness Start Highest point End
(mag) Time Altitude Azimuth Time Altitude Azimuth Time Altitude Azimuth
ARIANE 5 R/B 4.2 12:02:50 10° NW 12:04:45 12° WNW 12:06:40 10° W
Cosmos 1452 Rocket 4.3 12:01:17 10° NW 12:05:54 32° W 12:10:30 10° SSW
Lacrosse 5 rocket 2.6 12:02:45 10° W 12:06:18 25° NNW 12:09:55 10° NNE
Cosmos 1602 3.5 12:04:15 10° SSW 12:07:52 70° W 12:11:33 10° N
Cosmos 2151 3.7 12:06:11 10° SW 12:09:55 31° WNW 12:13:41 10° NNW
BREEZE-M DEB (TANK) 3.7 22:17:45 10° W 22:20:50 44° NNW 22:30:22 10° NE
Cosmos 1943 4.0 22:17:52 10° N 22:22:45 29° NE 22:27:38 10° ESE
YAOGAN 11 4.2 22:19:51 10° NNE 22:24:23 67° ESE 22:28:54 10° S
Cosmos 2142 Rocket 4.5 22:20:19 10° N 22:26:26 67° E 22:32:32 10° SSE
Cosmos 44 3.5 22:21:19 10° NNW 22:26:40 65° NE 22:31:45 10° SE
Cosmos 2297 Rocket 4.4 22:26:40 10° W 22:30:44 20° NW 22:34:51 10° N
Cosmos 2219 4.2 22:30:26 10° SW 22:35:48 46° WNW 22:41:14 10° NNE
Cosmos 2279 Rocket 4.0 22:30:13 10° N 22:36:29 89° E 22:42:42 10° S
CZ-4B R/B 4.2 22:34:05 10° SE 22:38:27 30° ENE 22:42:44 10° N
CZ-2D R/B 3.6 22:36:45 10° S 22:40:24 68° W 22:44:04 10° NNW
USA 305 3.6 22:37:52 10° NNW 22:41:13 28° NNE 22:44:32 10° E
USA 308 3.9 22:41:51 10° W 22:43:15 17° SW 22:44:29 10° S
ISS -3.7 22:41:17 10° NW 22:44:37 57° NNE 22:47:55 10° ESE
APEX 3.1 22:44:32 10° S 22:47:28 38° ESE 22:49:43 13° NE
Cosmos 1812 2.9 22:45:41 10° SSE 22:49:10 44° E 22:52:41 10° NNE
ATLAS CENTAUR R/B 3.1 22:45:29 10° NNW 22:49:49 48° NE 22:58:02 10° ESE
Cosmos 2082 4.4 22:45:56 10° SW 22:51:25 55° WNW 22:56:58 10° NNE
CZ-2C R/B 3.0 22:48:14 10° S 22:51:44 64° WSW 22:55:19 10° NNW
Cosmos 407 Rocket 4.1 22:48:06 10° N 22:52:43 32° ENE 22:57:17 10° SE
Nadezhda 4 Rocket 4.0 22:47:06 10° S 22:53:10 65° E 22:59:14 10° NNE
Cosmos 1437 Rocket 4.2 22:50:48 10° NNW 22:54:18 39° W 22:57:49 10° SSW
Radarsat Rocket 4.4 22:49:11 10° SE 22:54:24 36° ENE 22:59:48 10° N
SKYMED 2 4.5 22:52:06 10° NE 22:55:54 29° E 22:59:40 10° SSE
Cosmos 2251 Rocket 4.0 22:52:22 10° N 22:57:22 39° ENE 23:02:22 10° SE
Cosmos 1933 4.4 22:54:56 10° SE 22:58:11 24° E 23:00:40 14° NE
Meteor 1-25 Rocket 4.5 22:53:25 10° N 22:58:50 44° ENE 23:04:08 10° SSE
SL-8 R/B 3.8 22:54:43 10° WNW 22:59:27 59° NNE 23:03:35 13° E
Cosmos 1076 Rocket 4.3 22:55:26 10° NNW 22:59:42 56° W 23:03:56 10° S
SMAP 3.2 22:55:59 10° S 23:00:38 81° WSW 23:05:20 10° NNW
ATLAS 2AS CENTAUR R/B 3.6 23:05:27 10° NNW 23:11:11 27° NE 23:14:16 19° ENE
Cosmos 1812 Rocket 3.4 23:07:33 10° S 23:11:51 72° E 23:16:12 10° NNE
Meteor 1-31 Rocket 3.3 23:12:31 10° S 23:16:09 58° W 23:19:49 10° NNW
Cosmos 1818 3.5 23:11:51 10° SSW 23:17:15 76° ESE 23:21:34 17° NE
Lacrosse 5 2.1 23:12:29 10° SSW 23:17:23 54° SE 23:20:16 24° ENE
Cosmos 2263 Rocket 3.5 23:14:26 10° SW 23:19:35 38° WNW 23:24:46 10° N
Cosmos 1844 Rocket 3.0 23:14:38 10° S 23:19:52 45° ESE 23:23:25 20° NE
Cosmos 1666 4.1 23:18:35 10° NNW 23:21:52 37° W 23:25:08 10° SSW
Cosmos 1023 Rocket 4.4 23:19:02 10° NNW 23:24:13 89° ENE 23:29:18 10° SSE
Helios 1A 2.9 23:20:13 10° NNE 23:24:23 85° WNW 23:28:31 10° SSW
Cosmos 2227 4.3 23:19:30 10° SSW 23:25:16 81° WNW 23:31:00 10° NNE
Cosmos 1371 Rocket 4.5 23:21:24 10° S 23:26:12 39° ESE 23:28:34 25° NE
Meteor 2-17 Rocket 4.4 23:21:31 10° S 23:27:33 63° E 23:33:36 10° NNE
Cosmos 1627 Rocket 4.5 23:22:23 10° S 23:28:33 64° E 23:34:49 10° NNE
Meteor 1-20 Rocket 4.2 23:23:15 10° N 23:28:51 85° W 23:34:31 10° S
Cosmos 1782 2.6 23:28:50 10° S 23:32:43 76° E 23:35:34 18° NNE
USA 307 2.5 23:34:04 10° NW 23:37:56 86° SW 23:39:25 35° SE
USA 276 3.9 23:36:51 10° WNW 23:38:09 16° NNW 23:38:09 16° NNW
ADEOS 3.5 23:35:14 10° SSE 23:40:19 57° ENE 23:45:27 10° N
JB-3 4.1 23:39:40 36° NNE 23:41:06 67° E 23:44:52 10° S
SME Rocket 4.4 23:36:45 10° SE 23:41:55 46° ENE 23:49:38 10° N
Cosmos 1603 3.6 23:36:38 10° NNW 23:42:21 83° ENE 23:47:59 10° SSE
Cosmos 1420 Rocket 4.0 23:37:54 10° S 23:43:02 60° ESE 23:45:26 31° NE
COSMO-SKYMED 1 2.6 23:40:07 12° N 23:44:05 83° WNW 23:48:24 10° SSW
Cosmos 220 Rocket 4.4 23:42:13 10° N 23:45:37 41° NE 23:45:37 41° NE
USA 234 3.6 23:44:06 22° NE 23:48:28 61° NW 23:54:52 10° WSW
CZ-4 R/B 4.4 23:45:04 10° S 23:49:09 81° WSW 23:53:14 10° NNW
Cosmos 1624 Rocket 3.9 23:45:04 10° S 23:50:13 62° ESE 23:51:59 39° NE
Cosmos 1140 Rocket 4.2 23:46:24 10° NNW 23:51:26 54° WSW 23:56:25 10° S
